,,PA_Meas_PMT16A,,PR_Meas_QMR101_102,,RH_Meas_QMH101,,SR_Meas_QMS101,,TA_Meas_QMH101,,GenWind,,GenWind,
time,status,PA,status,PR,status,RH,status,SR,status,TA,status,DirAvg,status,SpdAvg,
2010-03-20, 00:00:04,VALID,918.189,VALID,0,VALID,93.2191,VALID,0,VALID,20.6569,VALID,208,VALID,1.20313,
2010-03-20, 00:01:04,VALID,918.189,VALID,0,VALID,93.1581,VALID,0,VALID,20.6569,VALID,208,VALID,0.712891,
2010-03-20, 00:02:04,VALID,918.18,VALID,0,VALID,93.2572,VALID,0.107441,VALID,20.6374,VALID,208,VALID,0.336328,
2010-03-20, 00:03:04,VALID,918.181,VALID,0,VALID,93.2649,VALID,0,VALID,20.6569,VALID,208,VALID,0.581641,
2010-03-20, 00:04:04,VALID,918.177,VALID,0,VALID,93.3259,VALID,0,VALID,20.6569,VALID,208,VALID,0.229687,
2010-03-20, 00:05:04,VALID,918.159,VALID,0,VALID,93.1963,VALID,0,VALID,20.6569,VALID,208,VALID,0.0195313,
2010-03-20, 00:06:04,VALID,918.139,VALID,0,VALID,92.9828,VALID,0.107441,VALID,20.6569,VALID,208,VALID,0.000390625,
2010-03-20, 00:07:04,VALID,918.089,VALID,0,VALID,93.1048,VALID,0.107441,VALID,20.6569,VALID,208,VALID,0.096875,
2010-03-20, 00:08:04,VALID,918.075,VALID,0,VALID,92.9676,VALID,0,VALID,20.6569,VALID,208,VALID,0.289844,
2010-03-20, 00:09:04,VALID,918.066,VALID,0,VALID,92.6779,VALID,0.107441,VALID,20.6374,VALID,208,VALID,0.367188,
2010-03-20, 00:10:04,VALID,918.028,VALID,0,VALID,92.7693,VALID,0.107441,VALID,20.6585,VALID,208,VALID,0.569531,
2010-03-20, 00:11:04,VALID,918.045,VALID,0,VALID,92.7312,VALID,0.107441,VALID,20.5984,VALID,208,VALID,0.626172,
2010-03-20, 00:12:04,VALID,918.054,VALID,0,VALID,91.0312,VALID,0.107441,VALID,20.5789,VALID,208,VALID,1.20781,
2010-03-20, 00:13:04,VALID,918.005,VALID,0,VALID,90.5509,VALID,0.107441,VALID,20.6764,VALID,208,VALID,0.894922,
2010-03-20, 00:14:04,VALID,917.97,VALID,0,VALID,90.2612,VALID,0,VALID,20.7154,VALID,208,VALID,0.717578,
2010-03-20, 00:15:04,VALID,917.992,VALID,0,VALID,90.0173,VALID,0.107441,VALID,20.7154,VALID,208,VALID,0.898828,
2010-03-20, 00:16:04,VALID,917.988,VALID,0,VALID,90.124,VALID,0.107441,VALID,20.6943,VALID,208,VALID,0.687109,
2010-03-20, 00:17:04,VALID,917.957,VALID,0,VALID,89.9563,VALID,0.107441,VALID,20.7154,VALID,170,VALID,0.7125,
2010-03-20, 00:18:04,VALID,917.955,VALID,0,VALID,90.4137,VALID,0.107441,VALID,20.6764,VALID,119,VALID,0.749609,
2010-03-20, 00:19:04,VALID,917.943,VALID,0,VALID,90.4137,VALID,0,VALID,20.6569,VALID,119,VALID,0.640625,
2010-03-20, 00:20:04,VALID,917.933,VALID,0,VALID,90.8635,VALID,0.107441,VALID,20.5984,VALID,119,VALID,0.823047,
2010-03-20, 00:21:04,VALID,917.925,VALID,0,VALID,91.0465,VALID,0,VALID,20.5399,VALID,119,VALID,0.732031,
2010-03-20, 00:22:04,VALID,917.915,VALID,0,VALID,91.3895,VALID,0,VALID,20.4813,VALID,119,VALID,0.5375,
2010-03-20, 00:23:04,VALID,917.887,VALID,0,VALID,91.4962,VALID,0,VALID,20.4423,VALID,119,VALID,0.735547,
2010-03-20, 00:24:04,VALID,917.908,VALID,0,VALID,91.6106,VALID,0.107441,VALID,20.4228,VALID,119,VALID,0.571094,
2010-03-20, 00:25:04,VALID,917.872,VALID,0,VALID,91.3285,VALID,0.107441,VALID,20.4228,VALID,119,VALID,0.901172,
2010-03-20, 00:26:04,VALID,917.907,VALID,0,VALID,91.4429,VALID,0,VALID,20.4228,VALID,119,VALID,0.575391,
2010-03-20, 00:27:04,VALID,917.896,VALID,0,VALID,91.42,VALID,0.107441,VALID,20.4033,VALID,119,VALID,0.66875,
2010-03-20, 00:28:04,VALID,917.903,VALID,0,VALID,91.3438,VALID,0.107441,VALID,20.4228,VALID,119,VALID,0.534375,
2010-03-20, 00:29:04,VALID,917.87,VALID,0,VALID,91.0236,VALID,0.107441,VALID,20.4228,VALID,119,VALID,0.756641,
2010-03-20, 00:30:04,VALID,917.886,VALID,0,VALID,90.894,VALID,0.107441,VALID,20.4618,VALID,119,VALID,0.661328,
2010-03-20, 00:31:04,VALID,917.893,VALID,0,VALID,90.9702,VALID,0.107441,VALID,20.4618,VALID,119,VALID,0.546484,
2010-03-20, 00:32:04,VALID,917.873,VALID,0,VALID,91.077,VALID,0.107441,VALID,20.4634,VALID,119,VALID,0.641406,
2010-03-20, 00:33:04,VALID,917.875,VALID,0,VALID,91.2599,VALID,0,VALID,20.4033,VALID,119,VALID,0.4625,
2010-03-20, 00:34:04,VALID,917.867,VALID,0,VALID,91.2828,VALID,0,VALID,20.3838,VALID,119,VALID,0.452344,
2010-03-20, 00:35:04,VALID,917.847,VALID,0,VALID,91.1913,VALID,0.107441,VALID,20.3643,VALID,119,VALID,0.544531,
2010-03-20, 00:36:04,VALID,917.853,VALID,0,VALID,91.2828,VALID,0.107441,VALID,20.3253,VALID,119,VALID,0.474609,
2010-03-20, 00:37:04,VALID,917.841,VALID,0,VALID,91.2904,VALID,0.107441,VALID,20.3253,VALID,119,VALID,0.326562,
2010-03-20, 00:38:04,VALID,917.792,VALID,0,VALID,91.2142,VALID,0.107441,VALID,20.3253,VALID,119,VALID,0.35,
2010-03-20, 00:39:04,VALID,917.77,VALID,0,VALID,91.1837,VALID,0,VALID,20.3058,VALID,119,VALID,0.441797,
2010-03-20, 00:40:04,VALID,917.753,VALID,0,VALID,91.0922,VALID,0.107441,VALID,20.3448,VALID,119,VALID,0.516406,
2010-03-20, 00:41:04,VALID,917.729,VALID,0,VALID,90.8406,VALID,0.107441,VALID,20.3643,VALID,119,VALID,0.549219,
2010-03-20, 00:42:04,VALID,917.711,VALID,0,VALID,90.7415,VALID,0.107441,VALID,20.3838,VALID,119,VALID,0.217578,
2010-03-20, 00:43:04,VALID,917.709,VALID,0,VALID,90.7187,VALID,0.107441,VALID,20.3838,VALID,119,VALID,0.0984375,
2010-03-20, 00:44:04,VALID,917.64,VALID,0,VALID,90.6577,VALID,0,VALID,20.4033,VALID,119,VALID,0.273047,
2010-03-20, 00:45:04,VALID,917.642,VALID,0,VALID,90.5204,VALID,0.107441,VALID,20.4244,VALID,119,VALID,0.220313,
2010-03-20, 00:46:04,VALID,917.663,VALID,0,VALID,90.6729,VALID,0.107441,VALID,20.4228,VALID,119,VALID,0.176563,
2010-03-20, 00:47:04,VALID,917.577,VALID,0,VALID,90.4747,VALID,0.107441,VALID,20.4033,VALID,119,VALID,0.423828,
2010-03-20, 00:48:04,VALID,917.585,VALID,0,VALID,90.4366,VALID,0.107441,VALID,20.4228,VALID,119,VALID,0.543359,
2010-03-20, 00:49:04,VALID,917.542,VALID,0,VALID,90.3908,VALID,0,VALID,20.4033,VALID,119,VALID,0.470313,
2010-03-20, 00:50:04,VALID,917.547,VALID,0,VALID,90.185,VALID,0,VALID,20.4033,VALID,119,VALID,0.803125,
2010-03-20, 00:51:04,VALID,917.46,VALID,0,VALID,90.429,VALID,0.107441,VALID,20.3838,VALID,119,VALID,0.936328,
2010-03-20, 00:52:04,VALID,917.466,VALID,0,VALID,90.5357,VALID,0.107441,VALID,20.3448,VALID,119,VALID,1.00391,
2010-03-20, 00:53:04,VALID,917.411,VALID,0,VALID,90.6577,VALID,0,VALID,20.2863,VALID,119,VALID,1.08789,
2010-03-20, 00:54:04,VALID,917.396,VALID,0,VALID,90.5433,VALID,0.107441,VALID,20.2668,VALID,156,VALID,1.13164,
2010-03-20, 00:55:04,VALID,917.36,VALID,0,VALID,90.4899,VALID,0.107441,VALID,20.2668,VALID,165,VALID,1.19609,
2010-03-20, 00:56:04,VALID,917.329,VALID,0,VALID,90.429,VALID,0,VALID,20.3058,VALID,165,VALID,0.835938,
2010-03-20, 00:57:04,VALID,917.297,VALID,0,VALID,90.3756,VALID,0.107441,VALID,20.3253,VALID,165,VALID,0.809375,
2010-03-20, 00:58:04,VALID,917.316,VALID,0,VALID,90.2765,VALID,0.107441,VALID,20.3253,VALID,165,VALID,0.889453,
2010-03-20, 00:59:04,VALID,917.291,VALID,0,VALID,90.3908,VALID,0,VALID,20.3058,VALID,174,VALID,1.02461,
2010-03-20, 01:00:04,VALID,917.25,VALID,0,VALID,90.4442,VALID,0,VALID,20.3464,VALID,174,VALID,0.830078,
2010-03-20, 01:01:04,VALID,917.264,VALID,0,VALID,90.3604,VALID,0,VALID,20.3269,VALID,174,VALID,0.934375,
2010-03-20, 01:02:04,VALID,917.227,VALID,0,VALID,90.8254,VALID,0,VALID,20.3058,VALID,174,VALID,1.04141,
2010-03-20, 01:03:04,VALID,917.24,VALID,0,VALID,90.8178,VALID,0.107441,VALID,20.2863,VALID,174,VALID,0.521484,
2010-03-20, 01:04:04,VALID,917.201,VALID,0,VALID,90.8787,VALID,0.107441,VALID,20.2668,VALID,174,VALID,0.819141,
2010-03-20, 01:05:04,VALID,917.227,VALID,0,VALID,90.9092,VALID,0.107441,VALID,20.2278,VALID,174,VALID,0.730469,
2010-03-20, 01:06:04,VALID,917.207,VALID,0,VALID,91.1456,VALID,0.107441,VALID,20.2098,VALID,174,VALID,0.562891,
2010-03-20, 01:07:04,VALID,917.19,VALID,0,VALID,91.6716,VALID,0,VALID,20.1303,VALID,174,VALID,0.896094,
2010-03-20, 01:08:04,VALID,917.164,VALID,0,VALID,91.9841,VALID,0,VALID,20.0913,VALID,174,VALID,0.785937,
2010-03-20, 01:09:04,VALID,917.133,VALID,0,VALID,92.1595,VALID,0,VALID,20.0523,VALID,174,VALID,0.626562,
2010-03-20, 01:10:04,VALID,917.114,VALID,0,VALID,92.1061,VALID,0,VALID,20.0133,VALID,174,VALID,0.70625,
2010-03-20, 01:11:04,VALID,917.079,VALID,0,VALID,92.4339,VALID,0,VALID,20.0133,VALID,174,VALID,0.744531,
2010-03-20, 01:12:04,VALID,917.035,VALID,0,VALID,92.6397,VALID,0,VALID,19.9938,VALID,174,VALID,0.782812,
2010-03-20, 01:13:04,VALID,917.03,VALID,0,VALID,92.594,VALID,0.107441,VALID,19.9548,VALID,174,VALID,0.709375,
2010-03-20, 01:14:04,VALID,917.033,VALID,0,VALID,92.7312,VALID,0,VALID,19.9353,VALID,174,VALID,0.865625,
2010-03-20, 01:15:04,VALID,916.996,VALID,0,VALID,93.0285,VALID,0,VALID,19.8768,VALID,174,VALID,0.824219,
2010-03-20, 01:16:04,VALID,916.967,VALID,0,VALID,93.1276,VALID,0,VALID,19.8393,VALID,174,VALID,0.874219,
2010-03-20, 01:17:04,VALID,916.956,VALID,0,VALID,93.1429,VALID,0.107441,VALID,19.7988,VALID,174,VALID,1.02148,
2010-03-20, 01:18:04,VALID,916.963,VALID,0,VALID,93.1963,VALID,0,VALID,19.7988,VALID,174,VALID,0.857813,
2010-03-20, 01:19:04,VALID,916.915,VALID,0,VALID,93.0819,VALID,0,VALID,19.7988,VALID,174,VALID,0.756641,
2010-03-20, 01:20:04,VALID,916.915,VALID,0,VALID,93.1581,VALID,0,VALID,19.7793,VALID,174,VALID,1.16992,
2010-03-20, 01:21:04,VALID,916.878,VALID,0,VALID,93.1886,VALID,0,VALID,19.7403,VALID,127,VALID,0.789844,
2010-03-20, 01:22:04,VALID,916.883,VALID,0,VALID,93.4326,VALID,0,VALID,19.7613,VALID,132,VALID,0.825391,
2010-03-20, 01:23:04,VALID,916.856,VALID,0,VALID,93.6079,VALID,0,VALID,19.7208,VALID,132,VALID,0.923828,
2010-03-20, 01:24:04,VALID,916.812,VALID,0,VALID,93.7909,VALID,0,VALID,19.7223,VALID,132,VALID,0.870313,
2010-03-20, 01:25:04,VALID,916.751,VALID,0,VALID,93.4936,VALID,0,VALID,19.6638,VALID,132,VALID,0.837891,
2010-03-20, 01:26:04,VALID,916.754,VALID,0,VALID,94.0806,VALID,0.107441,VALID,19.6248,VALID,132,VALID,1.05742,
2010-03-20, 01:27:04,VALID,916.716,VALID,0,VALID,94.4236,VALID,0,VALID,19.6053,VALID,132,VALID,1.05391,
2010-03-20, 01:28:04,VALID,916.696,VALID,0,VALID,94.6295,VALID,0,VALID,19.5858,VALID,132,VALID,1.39688,
2010-03-20, 01:29:04,VALID,916.658,VALID,0,VALID,94.8124,VALID,0,VALID,19.5663,VALID,132,VALID,1.37773,
2010-03-20, 01:30:04,VALID,916.631,VALID,0,VALID,94.8734,VALID,0,VALID,19.5258,VALID,132,VALID,1.10039,
2010-03-20, 01:31:04,VALID,916.593,VALID,0,VALID,94.7972,VALID,0,VALID,19.4673,VALID,132,VALID,1.2832,
2010-03-20, 01:32:04,VALID,916.565,VALID,0,VALID,94.9344,VALID,0.107441,VALID,19.5078,VALID,142,VALID,1.34023,
2010-03-20, 01:33:04,VALID,916.562,VALID,0,VALID,94.9878,VALID,0,VALID,19.4883,VALID,142,VALID,1.15117,
2010-03-20, 01:34:04,VALID,916.519,VALID,0,VALID,95.0488,VALID,0.107441,VALID,19.4868,VALID,144,VALID,0.998828,
2010-03-20, 01:35:04,VALID,916.517,VALID,0,VALID,95.1326,VALID,0,VALID,19.5273,VALID,145,VALID,0.830469,
2010-03-20, 01:36:04,VALID,916.488,VALID,0,VALID,95.2851,VALID,0,VALID,19.5468,VALID,145,VALID,1.22227,
2010-03-20, 01:37:04,VALID,916.503,VALID,0,VALID,95.2775,VALID,0,VALID,19.4868,VALID,145,VALID,1.00156,
2010-03-20, 01:38:04,VALID,916.494,VALID,0,VALID,95.2317,VALID,0,VALID,19.4883,VALID,145,VALID,0.890234,
2010-03-20, 01:39:04,VALID,916.464,VALID,0,VALID,95.247,VALID,0,VALID,19.4493,VALID,145,VALID,0.864062,
2010-03-20, 01:40:04,VALID,916.454,VALID,0,VALID,95.4147,VALID,0,VALID,19.4688,VALID,145,VALID,0.801172,
2010-03-20, 01:41:04,VALID,916.451,VALID,0,VALID,95.3308,VALID,0,VALID,19.4688,VALID,145,VALID,0.674219,
2010-03-20, 01:42:04,VALID,916.422,VALID,0,VALID,95.2393,VALID,0,VALID,19.4673,VALID,145,VALID,0.717969,
2010-03-20, 01:43:04,VALID,916.413,VALID,0,VALID,95.1174,VALID,0,VALID,19.5078,VALID,145,VALID,0.6875,
2010-03-20, 01:44:04,VALID,916.41,VALID,0,VALID,95.0259,VALID,0,VALID,19.5063,VALID,145,VALID,0.725,
2010-03-20, 01:45:04,VALID,916.427,VALID,0,VALID,94.881,VALID,0,VALID,19.5063,VALID,145,VALID,0.891797,
2010-03-20, 01:46:04,VALID,916.408,VALID,0,VALID,94.6371,VALID,0,VALID,19.5078,VALID,145,VALID,0.748828,
2010-03-20, 01:47:04,VALID,916.389,VALID,0,VALID,94.4541,VALID,0,VALID,19.5078,VALID,145,VALID,0.76875,
2010-03-20, 01:48:04,VALID,916.395,VALID,0,VALID,94.4617,VALID,0,VALID,19.5468,VALID,145,VALID,0.707812,
2010-03-20, 01:49:04,VALID,916.391,VALID,0,VALID,94.3245,VALID,0,VALID,19.5258,VALID,145,VALID,0.857813,
2010-03-20, 01:50:04,VALID,916.378,VALID,0,VALID,94.1568,VALID,0.107441,VALID,19.5663,VALID,145,VALID,0.671875,
2010-03-20, 01:51:04,VALID,916.373,VALID,0,VALID,94.1339,VALID,0,VALID,19.5663,VALID,145,VALID,0.870703,
2010-03-20, 01:52:04,VALID,916.373,VALID,0,VALID,94.0501,VALID,0,VALID,19.5648,VALID,145,VALID,0.858984,
2010-03-20, 01:53:04,VALID,916.401,VALID,0,VALID,94.0196,VALID,0,VALID,19.5858,VALID,148,VALID,0.739062,
2010-03-20, 01:54:04,VALID,916.388,VALID,0,VALID,93.8976,VALID,0,VALID,19.6053,VALID,148,VALID,0.224219,
2010-03-20, 01:55:04,VALID,916.377,VALID,0,VALID,93.7451,VALID,0,VALID,19.6248,VALID,148,VALID,1.0582,
2010-03-20, 01:56:04,VALID,916.384,VALID,0,VALID,93.5164,VALID,0,VALID,19.6833,VALID,148,VALID,0.614844,
2010-03-20, 01:57:04,VALID,916.374,VALID,0,VALID,93.2268,VALID,0,VALID,19.7028,VALID,148,VALID,0.510156,
2010-03-20, 01:58:04,VALID,916.376,VALID,0,VALID,93.0209,VALID,0,VALID,19.7223,VALID,148,VALID,0.402734,
2010-03-20, 01:59:04,VALID,916.348,VALID,0,VALID,92.9371,VALID,0,VALID,19.7223,VALID,148,VALID,0.153125,
2010-03-20, 02:00:04,VALID,916.364,VALID,0,VALID,92.9142,VALID,0,VALID,19.7613,VALID,151,VALID,0.8125,
2010-03-20, 02:01:04,VALID,916.349,VALID,0,VALID,92.6779,VALID,0,VALID,19.8003,VALID,163,VALID,0.475,
2010-03-20, 02:02:04,VALID,916.336,VALID,0,VALID,92.6397,VALID,0,VALID,19.7808,VALID,163,VALID,0.727734,
2010-03-20, 02:03:05,VALID,916.332,VALID,0,VALID,92.6169,VALID,0,VALID,19.8003,VALID,163,VALID,0.672656,
2010-03-20, 02:04:05,VALID,916.292,VALID,0,VALID,92.6702,VALID,0,VALID,19.8198,VALID,163,VALID,0.473437,
2010-03-20, 02:05:05,VALID,916.325,VALID,0,VALID,92.5406,VALID,0,VALID,19.8393,VALID,163,VALID,0.393359,
2010-03-20, 02:06:05,VALID,916.318,VALID,0,VALID,92.2357,VALID,0,VALID,19.8588,VALID,163,VALID,0.215234,
2010-03-20, 02:07:05,VALID,916.337,VALID,0,VALID,92.2433,VALID,0,VALID,19.8588,VALID,163,VALID,0.201562,
2010-03-20, 02:08:05,VALID,916.342,VALID,0,VALID,92.2281,VALID,0,VALID,19.8393,VALID,163,VALID,0.158594,
2010-03-20, 02:09:05,VALID,916.343,VALID,0,VALID,92.2052,VALID,0,VALID,19.8198,VALID,163,VALID,0.317969,
2010-03-20, 02:10:05,VALID,916.341,VALID,0,VALID,92.1747,VALID,0,VALID,19.8588,VALID,163,VALID,0.364844,
2010-03-20, 02:11:05,VALID,916.345,VALID,0,VALID,92.1061,VALID,0,VALID,19.8393,VALID,163,VALID,0.686328,
2010-03-20, 02:12:05,VALID,916.366,VALID,0,VALID,92.2814,VALID,0,VALID,19.8393,VALID,163,VALID,0.0355469,
2010-03-20, 02:13:05,VALID,916.381,VALID,0,VALID,92.19,VALID,0,VALID,19.8783,VALID,163,VALID,0.304297,
2010-03-20, 02:14:05,VALID,916.377,VALID,0,VALID,92.0909,VALID,0,VALID,19.8783,VALID,163,VALID,0.667969,
2010-03-20, 02:15:05,VALID,916.406,VALID,0,VALID,92.2205,VALID,0,VALID,19.8978,VALID,163,VALID,0.251172,
2010-03-20, 02:16:05,VALID,916.42,VALID,0,VALID,92.2128,VALID,0,VALID,19.9368,VALID,163,VALID,0.607813,
2010-03-20, 02:17:05,VALID,916.385,VALID,0,VALID,92.007,VALID,0,VALID,19.9758,VALID,163,VALID,0.551172,
2010-03-20, 02:18:05,VALID,916.415,VALID,0,VALID,91.8774,VALID,0,VALID,19.9953,VALID,163,VALID,0.620703,
2010-03-20, 02:19:05,VALID,916.422,VALID,0,VALID,91.6716,VALID,0,VALID,19.9953,VALID,163,VALID,0.5,
2010-03-20, 02:20:05,VALID,916.408,VALID,0,VALID,91.6716,VALID,0,VALID,20.0358,VALID,163,VALID,0.260156,
2010-03-20, 02:21:05,VALID,916.391,VALID,0,VALID,91.4886,VALID,0,VALID,20.0358,VALID,163,VALID,0.437891,
2010-03-20, 02:22:05,VALID,916.43,VALID,0,VALID,90.5814,VALID,0,VALID,19.9758,VALID,163,VALID,0.171875,
2010-03-20, 02:23:05,VALID,916.402,VALID,0,VALID,91.1303,VALID,0,VALID,19.8783,VALID,163,VALID,0.00117188,
2010-03-20, 02:24:05,VALID,916.39,VALID,0,VALID,90.894,VALID,0,VALID,19.7613,VALID,163,VALID,0,
2010-03-20, 02:25:05,VALID,916.404,VALID,0,VALID,91.1303,VALID,0,VALID,19.6833,VALID,163,VALID,0,
2010-03-20, 02:26:05,VALID,916.429,VALID,0,VALID,91.5115,VALID,0,VALID,19.5468,VALID,163,VALID,0.450781,
2010-03-20, 02:27:05,VALID,916.411,VALID,0,VALID,92.4415,VALID,0,VALID,19.4298,VALID,163,VALID,0.416016,
2010-03-20, 02:28:05,VALID,916.375,VALID,0,VALID,93.8214,VALID,0,VALID,19.4103,VALID,163,VALID,0.554688,
2010-03-20, 02:29:05,VALID,916.407,VALID,0,VALID,94.5151,VALID,0,VALID,19.4508,VALID,163,VALID,0.748828,
2010-03-20, 02:30:05,VALID,916.395,VALID,0,VALID,94.5075,VALID,0,VALID,19.4508,VALID,163,VALID,0.841016,
2010-03-20, 02:31:05,VALID,916.378,VALID,0,VALID,94.538,VALID,0,VALID,19.4298,VALID,163,VALID,1.17617,
2010-03-20, 02:32:05,VALID,916.355,VALID,0,VALID,94.477,VALID,0,VALID,19.4493,VALID,163,VALID,1.01055,
2010-03-20, 02:33:05,VALID,916.335,VALID,0,VALID,94.3703,VALID,0,VALID,19.4508,VALID,163,VALID,0.913281,
2010-03-20, 02:34:05,VALID,916.339,VALID,0,VALID,94.2026,VALID,0,VALID,19.4298,VALID,163,VALID,0.694531,
2010-03-20, 02:35:05,VALID,916.33,VALID,0,VALID,94.0272,VALID,0,VALID,19.3908,VALID,163,VALID,0.634766,
2010-03-20, 02:36:05,VALID,916.322,VALID,0,VALID,94.1797,VALID,0,VALID,19.3713,VALID,163,VALID,0.804297,
2010-03-20, 02:37:05,VALID,916.289,VALID,0,VALID,94.0577,VALID,0,VALID,19.3323,VALID,163,VALID,0.670703,
2010-03-20, 02:38:05,VALID,916.307,VALID,0,VALID,94.5075,VALID,0,VALID,19.3323,VALID,163,VALID,0.667578,
2010-03-20, 02:39:05,VALID,916.266,VALID,0,VALID,94.6981,VALID,0,VALID,19.3128,VALID,163,VALID,0.696875,
2010-03-20, 02:40:05,VALID,916.271,VALID,0,VALID,94.7362,VALID,0,VALID,19.3128,VALID,163,VALID,0.430469,
2010-03-20, 02:41:05,VALID,916.302,VALID,0,VALID,94.8429,VALID,0,VALID,19.3338,VALID,163,VALID,0.435937,
2010-03-20, 02:42:05,VALID,916.272,VALID,0,VALID,94.8887,VALID,0,VALID,19.3338,VALID,163,VALID,0.359766,
2010-03-20, 02:43:05,VALID,916.274,VALID,0,VALID,94.9115,VALID,0,VALID,19.3338,VALID,163,VALID,0.307422,
2010-03-20, 02:44:05,VALID,916.283,VALID,0,VALID,94.9268,VALID,0,VALID,19.3323,VALID,163,VALID,0.182031,
2010-03-20, 02:45:05,VALID,916.246,VALID,0,VALID,94.9192,VALID,0,VALID,19.3518,VALID,163,VALID,0.294141,
2010-03-20, 02:46:05,VALID,916.279,VALID,0,VALID,94.8124,VALID,0,VALID,19.3728,VALID,163,VALID,0,
2010-03-20, 02:47:05,VALID,916.272,VALID,0,VALID,94.7057,VALID,0,VALID,19.3518,VALID,163,VALID,0,
2010-03-20, 02:48:05,VALID,916.284,VALID,0,VALID,94.6752,VALID,0,VALID,19.3518,VALID,163,VALID,0,
2010-03-20, 02:49:05,VALID,916.29,VALID,0,VALID,94.66,VALID,0,VALID,19.3713,VALID,163,VALID,0.219531,
2010-03-20, 02:50:05,VALID,916.285,VALID,0,VALID,94.4617,VALID,0,VALID,19.4103,VALID,163,VALID,0.261328,
2010-03-20, 02:51:05,VALID,916.318,VALID,0,VALID,94.233,VALID,0,VALID,19.4493,VALID,163,VALID,0.0117188,
2010-03-20, 02:52:05,VALID,916.312,VALID,0,VALID,94.1111,VALID,0,VALID,19.4493,VALID,163,VALID,0,
2010-03-20, 02:53:05,VALID,916.342,VALID,0,VALID,93.6994,VALID,0,VALID,19.4703,VALID,163,VALID,0,
2010-03-20, 02:54:05,VALID,916.318,VALID,0,VALID,93.6842,VALID,0,VALID,19.4283,VALID,163,VALID,0,
2010-03-20, 02:55:05,VALID,916.313,VALID,0,VALID,93.0514,VALID,0,VALID,19.4298,VALID,163,VALID,0,
2010-03-20, 02:56:05,VALID,916.285,VALID,0,VALID,93.3411,VALID,0,VALID,19.4508,VALID,163,VALID,0,
2010-03-20, 02:57:05,VALID,916.301,VALID,0,VALID,93.3564,VALID,0.107441,VALID,19.3893,VALID,163,VALID,0,
2010-03-20, 02:58:05,VALID,916.262,VALID,0,VALID,93.5393,VALID,0,VALID,19.4103,VALID,163,VALID,0.289063,
2010-03-20, 02:59:05,VALID,916.255,VALID,0,VALID,93.6765,VALID,0.107441,VALID,19.4298,VALID,163,VALID,0.245703,
2010-03-20, 03:00:05,VALID,916.257,VALID,0,VALID,93.181,VALID,0,VALID,19.3908,VALID,163,VALID,0,
2010-03-20, 03:01:05,VALID,916.232,VALID,0,VALID,93.1048,VALID,0,VALID,19.3518,VALID,163,VALID,0.0015625,
2010-03-20, 03:02:05,VALID,916.221,VALID,0,VALID,93.6003,VALID,0,VALID,19.3323,VALID,163,VALID,0.221875,
2010-03-20, 03:03:05,VALID,916.253,VALID,0,VALID,93.2801,VALID,0,VALID,19.2543,VALID,163,VALID,0.25625,
2010-03-20, 03:04:05,VALID,916.215,VALID,0,VALID,93.1276,VALID,0,VALID,19.1373,VALID,163,VALID,0.491406,
2010-03-20, 03:05:05,VALID,916.216,VALID,0,VALID,93.4173,VALID,0,VALID,19.0398,VALID,163,VALID,0.508984,
2010-03-20, 03:06:05,VALID,916.18,VALID,0,VALID,94.3474,VALID,0,VALID,18.9994,VALID,163,VALID,0.445703,
2010-03-20, 03:07:05,VALID,916.164,VALID,0,VALID,95.0259,VALID,0,VALID,19.0203,VALID,163,VALID,0.395312,
2010-03-20, 03:08:05,VALID,916.186,VALID,0,VALID,95.3079,VALID,0,VALID,19.0593,VALID,163,VALID,0.466016,
2010-03-20, 03:09:05,VALID,916.165,VALID,0,VALID,95.4452,VALID,0.107441,VALID,19.0788,VALID,163,VALID,0.401563,
2010-03-20, 03:10:05,VALID,916.125,VALID,0,VALID,95.1783,VALID,0,VALID,19.0593,VALID,163,VALID,0.512891,
2010-03-20, 03:11:05,VALID,916.152,VALID,0,VALID,95.2241,VALID,0,VALID,19.0788,VALID,163,VALID,0.288281,
2010-03-20, 03:12:05,VALID,916.135,VALID,0,VALID,95.1555,VALID,0.107441,VALID,19.0384,VALID,163,VALID,0.365625,
2010-03-20, 03:13:05,VALID,916.133,VALID,0,VALID,94.8353,VALID,0,VALID,19.0203,VALID,163,VALID,0.615234,
2010-03-20, 03:14:05,VALID,916.126,VALID,0,VALID,94.3703,VALID,0,VALID,18.9229,VALID,163,VALID,0.540625,
2010-03-20, 03:15:05,VALID,916.127,VALID,0,VALID,94.416,VALID,0.107441,VALID,18.8434,VALID,163,VALID,0.698438,
2010-03-20, 03:16:05,VALID,916.125,VALID,0,VALID,94.9954,VALID,0,VALID,18.824,VALID,163,VALID,0.614062,
2010-03-20, 03:17:05,VALID,916.119,VALID,0,VALID,95.4985,VALID,0,VALID,18.8644,VALID,163,VALID,0.721875,
2010-03-20, 03:18:05,VALID,916.107,VALID,0,VALID,95.6586,VALID,0.107441,VALID,18.8449,VALID,163,VALID,0.802344,
2010-03-20, 03:19:05,VALID,916.141,VALID,0,VALID,95.9026,VALID,0,VALID,18.8644,VALID,163,VALID,0.781641,
2010-03-20, 03:20:05,VALID,916.165,VALID,0,VALID,96.0932,VALID,0,VALID,18.9229,VALID,163,VALID,0.789063,
2010-03-20, 03:21:05,VALID,916.184,VALID,0,VALID,96.1923,VALID,0,VALID,18.9619,VALID,163,VALID,0.651563,
2010-03-20, 03:22:05,VALID,916.2,VALID,0,VALID,96.2533,VALID,0,VALID,19.0008,VALID,163,VALID,0.725,
2010-03-20, 03:23:05,VALID,916.181,VALID,0,VALID,96.2075,VALID,0,VALID,19.0008,VALID,163,VALID,0.374219,
2010-03-20, 03:24:05,VALID,916.223,VALID,0,VALID,96.2075,VALID,0,VALID,19.0203,VALID,163,VALID,0.347656,
2010-03-20, 03:25:05,VALID,916.223,VALID,0,VALID,96.2685,VALID,0.107441,VALID,19.0579,VALID,163,VALID,0.132031,
2010-03-20, 03:26:05,VALID,916.233,VALID,0,VALID,96.2228,VALID,0,VALID,19.1178,VALID,163,VALID,0.267188,
2010-03-20, 03:27:05,VALID,916.228,VALID,0,VALID,95.9941,VALID,0.107441,VALID,19.0983,VALID,163,VALID,0.655469,
2010-03-20, 03:28:05,VALID,916.273,VALID,0,VALID,95.9788,VALID,0,VALID,19.1178,VALID,163,VALID,0.543359,
2010-03-20, 03:29:05,VALID,916.251,VALID,0,VALID,95.9636,VALID,0.107441,VALID,19.1359,VALID,163,VALID,0.735156,
2010-03-20, 03:30:05,VALID,916.264,VALID,0,VALID,95.9559,VALID,0,VALID,19.1749,VALID,163,VALID,0.436328,
2010-03-20, 03:31:05,VALID,916.253,VALID,0,VALID,95.9941,VALID,0,VALID,19.2139,VALID,163,VALID,0.81875,
2010-03-20, 03:32:05,VALID,916.27,VALID,0,VALID,95.9483,VALID,0,VALID,19.2348,VALID,163,VALID,0.71875,
2010-03-20, 03:33:05,VALID,916.259,VALID,0,VALID,95.8111,VALID,0.107441,VALID,19.2139,VALID,163,VALID,0.901172,
2010-03-20, 03:34:05,VALID,916.263,VALID,0,VALID,95.6967,VALID,0.107441,VALID,19.2334,VALID,163,VALID,0.757422,
2010-03-20, 03:35:05,VALID,916.266,VALID,0,VALID,95.7196,VALID,0,VALID,19.2543,VALID,163,VALID,0.473437,
2010-03-20, 03:36:05,VALID,916.26,VALID,0,VALID,95.6205,VALID,0,VALID,19.2348,VALID,163,VALID,0.687109,
2010-03-20, 03:37:05,VALID,916.26,VALID,0,VALID,95.5748,VALID,0,VALID,19.1958,VALID,163,VALID,0.439844,
2010-03-20, 03:38:05,VALID,916.26,VALID,0,VALID,95.5976,VALID,0,VALID,19.1958,VALID,163,VALID,0.499609,
2010-03-20, 03:39:05,VALID,916.243,VALID,0,VALID,95.7349,VALID,0,VALID,19.1958,VALID,163,VALID,0.464844,
2010-03-20, 03:40:05,VALID,916.26,VALID,0,VALID,95.7272,VALID,0,VALID,19.1749,VALID,163,VALID,0.658984,
2010-03-20, 03:41:05,VALID,916.242,VALID,0,VALID,95.8111,VALID,0,VALID,19.1749,VALID,163,VALID,0.842578,